Find Shiyan 28B-02

NORAD ID: 65226 Int'l Des: 2025-177 Owner: ZZB Country: CN operational
LEOCIRCULAR

Current View

Loading 3D Globe...

About Shiyan 28B-02

Shiyan 28B-02 (NORAD 65226) is a satellite launched Aug 17, 2025 by ZZB of CN. It operates in LEO, CIRCULAR orbit with a mass of 2000.00 kg.

Upcoming Passes

Passes for default location (London). Set your location on the main map for personalized predictions.

Altitude History

Loading altitude history...

Two-Line Element Set

1 65226U 25177A 26195.38734916 .00000529 00000-0 37525-4 0 9999
2 65226 10.9990 116.4848 0003770 285.5785 74.4027 14.29406272 47439
Epoch: Jul 14, 2026 • Age: 13 hours

Current Status

Altitude 790.8 km
Apogee / Perigee N/A
Velocity 7.46 km/s
Sub-Earth Point -10.47°S, 98.34°E
Launch Date Aug 17, 2025
Age 0.9 years
Type other

Technical Details

Classification Payload
Mass 2000.00 kg
Dry Mass 2000.00 kg
Total Mass 2000.00 kg
Length 2.50 m
Diameter 2.50 m
Span 5.00 m
Shape Box + 2 Pan
Manufacturer IMICAS
Phase Status In Orbit
Owner/State ZZB/CN

Most Searched